JAL134 RJOO-RJTT

Flight info

Callsign JAL134
Flight time 0h 40m
Altitude 27000
Route SHTLE/N0447F260 ASUKA/N0439F250 SHTLE Y71 XAC
Aircraft B772/H-SDE2E3FGHIJ5LORVWXY/LB1D1

Departure

Time 2026-05-06 13:03
Airport Osaka Itami International Airport (RJOO)

Arrival

Time 2026-05-06 13:44
Airport Tokyo Haneda International Airport (RJTT)
Time Latitude Longitude Altitude Speed Heading
2026-05-06 12:35 34.79127 135.43919 52 ft 0 kts 67°
2026-05-06 12:53 34.79124 135.43911 55 ft 3 kts 67°
2026-05-06 12:53 34.79115 135.43885 55 ft 3 kts 68°
2026-05-06 12:53 34.79107 135.43859 47 ft 3 kts 69°
2026-05-06 12:53 34.79099 135.43834 47 ft 3 kts 70°
2026-05-06 12:54 34.79091 135.43808 48 ft 3 kts 71°
2026-05-06 12:54 34.79085 135.43782 47 ft 3 kts 74°
2026-05-06 12:54 34.79079 135.43756 47 ft 3 kts 81°
2026-05-06 12:54 34.79078 135.43729 47 ft 3 kts 105°
2026-05-06 12:55 34.79083 135.43715 47 ft 0 kts 135°
2026-05-06 12:57 34.79082 135.43715 47 ft 1 kts 135°
2026-05-06 12:57 34.79069 135.43731 47 ft 5 kts 135°
2026-05-06 12:57 34.79037 135.43771 49 ft 8 kts 135°
2026-05-06 12:57 34.78980 135.43840 49 ft 13 kts 136°
2026-05-06 12:58 34.78901 135.43884 48 ft 13 kts 164°
2026-05-06 12:58 34.78818 135.43916 46 ft 13 kts 154°
2026-05-06 12:58 34.78752 135.43993 51 ft 16 kts 134°
2026-05-06 12:58 34.78665 135.44097 51 ft 19 kts 136°
2026-05-06 12:59 34.78573 135.44206 49 ft 19 kts 135°
2026-05-06 12:59 34.78485 135.44310 49 ft 16 kts 143°
2026-05-06 12:59 34.78377 135.44336 51 ft 16 kts 178°
2026-05-06 12:59 34.78266 135.44338 53 ft 16 kts 180°
2026-05-06 13:00 34.78172 135.44349 49 ft 13 kts 152°
2026-05-06 13:00 34.78095 135.44435 48 ft 20 kts 135°
2026-05-06 13:00 34.77995 135.44558 49 ft 20 kts 134°
2026-05-06 13:00 34.77894 135.44680 49 ft 20 kts 135°
2026-05-06 13:01 34.77792 135.44801 49 ft 20 kts 135°
2026-05-06 13:01 34.77696 135.44907 47 ft 17 kts 148°
2026-05-06 13:01 34.77589 135.44972 49 ft 17 kts 155°
2026-05-06 13:01 34.77507 135.45014 52 ft 7 kts 166°
2026-05-06 13:02 34.77494 135.45015 49 ft 0 kts 178°
2026-05-06 13:02 34.77454 135.45004 52 ft 9 kts 209°
2026-05-06 13:02 34.77433 135.44942 48 ft 7 kts 273°
2026-05-06 13:02 34.77471 135.44881 50 ft 17 kts 314°
2026-05-06 13:03 34.77727 135.44573 49 ft 104 kts 315°
2026-05-06 13:03 34.78488 135.43642 239 ft 190 kts 315°
2026-05-06 13:03 34.79444 135.42445 1420 ft 206 kts 310°
2026-05-06 13:03 34.80040 135.40782 2070 ft 226 kts 271°
2026-05-06 13:04 34.79631 135.38947 2739 ft 232 kts 235°
2026-05-06 13:04 34.78397 135.37629 3253 ft 248 kts 202°
2026-05-06 13:04 34.76694 135.37381 4059 ft 253 kts 169°
2026-05-06 13:04 34.75120 135.38337 4880 ft 263 kts 136°
2026-05-06 13:05 34.74231 135.40295 5623 ft 271 kts 106°
2026-05-06 13:05 34.73973 135.42648 6301 ft 277 kts 91°
2026-05-06 13:05 34.74024 135.45021 7013 ft 284 kts 87°
2026-05-06 13:05 34.74150 135.47441 7754 ft 288 kts 86°
2026-05-06 13:06 34.74291 135.49884 8516 ft 291 kts 86°
2026-05-06 13:06 34.74430 135.52359 9250 ft 295 kts 87°
2026-05-06 13:06 34.74563 135.54867 9963 ft 300 kts 87°
2026-05-06 13:06 34.74693 135.57439 10390 ft 314 kts 87°
2026-05-06 13:07 34.74827 135.60187 10543 ft 337 kts 87°
2026-05-06 13:07 34.74966 135.63133 10723 ft 361 kts 87°
2026-05-06 13:07 34.75111 135.66254 11225 ft 377 kts 87°
2026-05-06 13:07 34.75259 135.69477 11949 ft 387 kts 88°
2026-05-06 13:08 34.75408 135.72763 12930 ft 391 kts 88°
2026-05-06 13:08 34.75558 135.76091 13897 ft 397 kts 88°
2026-05-06 13:08 34.75710 135.79468 14673 ft 404 kts 88°
2026-05-06 13:08 34.75862 135.82908 15465 ft 410 kts 87°
2026-05-06 13:09 34.76016 135.86396 16246 ft 416 kts 87°
2026-05-06 13:09 34.76172 135.89934 17019 ft 422 kts 87°
2026-05-06 13:09 34.76330 135.93515 17758 ft 428 kts 87°
2026-05-06 13:09 34.76488 135.97153 18484 ft 433 kts 87°
2026-05-06 13:10 34.76645 136.00832 19075 ft 438 kts 87°
2026-05-06 13:10 34.76806 136.04554 19530 ft 443 kts 86°
2026-05-06 13:10 34.77038 136.08305 19944 ft 448 kts 85°
2026-05-06 13:10 34.77320 136.12092 20374 ft 451 kts 85°
2026-05-06 13:11 34.77619 136.15901 20822 ft 454 kts 85°
2026-05-06 13:11 34.77918 136.19744 21253 ft 458 kts 85°
2026-05-06 13:11 34.78211 136.23622 21646 ft 462 kts 85°
2026-05-06 13:11 34.78499 136.27544 22045 ft 465 kts 85°
2026-05-06 13:12 34.78687 136.30147 22301 ft 467 kts 85°
2026-05-06 13:12 34.79063 136.35443 22811 ft 472 kts 86°
2026-05-06 13:12 34.79248 136.38086 22979 ft 476 kts 86°
2026-05-06 13:12 34.79530 136.42138 23172 ft 484 kts 87°
2026-05-06 13:13 34.79814 136.46231 23505 ft 488 kts 87°
2026-05-06 13:13 34.80100 136.50354 23896 ft 490 kts 87°
2026-05-06 13:13 34.80386 136.54488 24268 ft 491 kts 87°
2026-05-06 13:13 34.80672 136.58643 24618 ft 493 kts 87°
2026-05-06 13:14 34.80957 136.62801 24933 ft 497 kts 88°
2026-05-06 13:14 34.81244 136.67017 25256 ft 500 kts 88°
2026-05-06 13:14 34.81530 136.71242 25587 ft 503 kts 88°
2026-05-06 13:14 34.81817 136.75505 25919 ft 505 kts 88°
2026-05-06 13:15 34.82104 136.79778 26208 ft 510 kts 88°
2026-05-06 13:15 34.82387 136.84027 26454 ft 514 kts 88°
2026-05-06 13:15 34.82677 136.88387 26698 ft 518 kts 88°
2026-05-06 13:15 34.82967 136.92784 26833 ft 525 kts 88°
2026-05-06 13:16 34.83198 136.97226 26852 ft 526 kts 94°
2026-05-06 13:16 34.82768 137.01258 26893 ft 519 kts 110°
2026-05-06 13:16 34.81887 137.05556 27009 ft 518 kts 106°
2026-05-06 13:16 34.81342 137.09960 27071 ft 521 kts 101°
2026-05-06 13:17 34.80973 137.14359 27110 ft 523 kts 100°
2026-05-06 13:17 34.80619 137.18765 27109 ft 522 kts 101°
2026-05-06 13:17 34.80216 137.23157 27119 ft 521 kts 102°
2026-05-06 13:17 34.79754 137.27524 27111 ft 520 kts 103°
2026-05-06 13:18 34.79245 137.31883 27126 ft 520 kts 103°
2026-05-06 13:18 34.78714 137.36228 27128 ft 520 kts 104°
2026-05-06 13:18 34.78183 137.40515 27131 ft 520 kts 104°
2026-05-06 13:18 34.77644 137.44871 27132 ft 520 kts 104°
2026-05-06 13:19 34.77109 137.49229 27115 ft 521 kts 104°
2026-05-06 13:19 34.76576 137.53584 27130 ft 521 kts 103°
2026-05-06 13:19 34.76044 137.57949 27050 ft 522 kts 103°
2026-05-06 13:19 34.75512 137.62315 26811 ft 522 kts 104°
2026-05-06 13:20 34.74976 137.66676 26574 ft 521 kts 104°
2026-05-06 13:20 34.74459 137.71038 26336 ft 522 kts 102°
2026-05-06 13:20 34.74021 137.75422 26094 ft 523 kts 101°
2026-05-06 13:20 34.73623 137.79817 25865 ft 522 kts 101°
2026-05-06 13:21 34.73230 137.84198 25652 ft 521 kts 101°
2026-05-06 13:21 34.72823 137.88575 25417 ft 520 kts 102°
2026-05-06 13:21 34.72403 137.92934 25184 ft 518 kts 102°
2026-05-06 13:21 34.71977 137.97272 24955 ft 515 kts 102°
2026-05-06 13:22 34.71558 138.01579 24726 ft 512 kts 102°
2026-05-06 13:22 34.71322 138.05901 24487 ft 513 kts 95°
2026-05-06 13:22 34.71342 138.10225 24267 ft 510 kts 94°
2026-05-06 13:22 34.71395 138.14526 24048 ft 508 kts 94°
2026-05-06 13:23 34.71448 138.18810 23819 ft 506 kts 94°
2026-05-06 13:23 34.71489 138.23065 23581 ft 503 kts 94°
2026-05-06 13:23 34.71517 138.27302 23325 ft 500 kts 94°
2026-05-06 13:23 34.71536 138.31520 23193 ft 496 kts 94°
2026-05-06 13:24 34.71548 138.35705 23140 ft 496 kts 94°
2026-05-06 13:24 34.71557 138.39898 23126 ft 497 kts 94°
2026-05-06 13:24 34.71566 138.44099 23132 ft 496 kts 94°
2026-05-06 13:24 34.71574 138.48297 23131 ft 497 kts 94°
2026-05-06 13:25 34.71581 138.52506 23145 ft 498 kts 94°
2026-05-06 13:25 34.71588 138.56709 23142 ft 498 kts 94°
2026-05-06 13:25 34.71593 138.60925 23149 ft 499 kts 95°
2026-05-06 13:25 34.71597 138.65142 23146 ft 499 kts 95°
2026-05-06 13:26 34.71600 138.69353 23146 ft 500 kts 95°
2026-05-06 13:26 34.71600 138.73601 23146 ft 503 kts 95°
2026-05-06 13:26 34.71600 138.77862 22827 ft 504 kts 95°
2026-05-06 13:26 34.71597 138.82101 22287 ft 500 kts 94°
2026-05-06 13:27 34.71582 138.86310 21733 ft 494 kts 94°
2026-05-06 13:27 34.71559 138.90458 21185 ft 489 kts 94°
2026-05-06 13:27 34.71534 138.94556 20648 ft 482 kts 94°
2026-05-06 13:27 34.71511 138.98595 20211 ft 475 kts 94°
2026-05-06 13:28 34.71496 139.02577 19770 ft 468 kts 94°
2026-05-06 13:28 34.71469 139.06517 19364 ft 465 kts 94°
2026-05-06 13:28 34.71438 139.10449 19001 ft 466 kts 94°
2026-05-06 13:28 34.71408 139.14401 18638 ft 467 kts 93°
2026-05-06 13:29 34.71430 139.18322 18251 ft 463 kts 88°
2026-05-06 13:29 34.71970 139.22163 17676 ft 462 kts 74°
2026-05-06 13:29 34.73157 139.25763 17147 ft 456 kts 62°
2026-05-06 13:29 34.74779 139.29020 16608 ft 443 kts 53°
2026-05-06 13:30 34.76600 139.32022 15971 ft 441 kts 52°
2026-05-06 13:30 34.78400 139.35017 15430 ft 436 kts 53°
2026-05-06 13:30 34.80163 139.37984 14950 ft 431 kts 53°
2026-05-06 13:30 34.81897 139.40925 14489 ft 425 kts 53°
2026-05-06 13:31 34.83603 139.43830 14017 ft 419 kts 53°
2026-05-06 13:31 34.85285 139.46705 13486 ft 415 kts 53°
2026-05-06 13:31 34.86947 139.49549 12926 ft 411 kts 54°
2026-05-06 13:31 34.88600 139.52381 12385 ft 407 kts 54°
2026-05-06 13:32 34.90229 139.55175 11865 ft 403 kts 54°
2026-05-06 13:32 34.91840 139.57940 11360 ft 399 kts 54°
2026-05-06 13:32 34.93438 139.60685 10849 ft 395 kts 54°
2026-05-06 13:32 34.95023 139.63409 10352 ft 392 kts 54°
2026-05-06 13:33 34.96579 139.66086 10126 ft 380 kts 55°
2026-05-06 13:33 34.98079 139.68669 10012 ft 365 kts 55°
2026-05-06 13:33 34.99511 139.71135 9997 ft 348 kts 55°
2026-05-06 13:33 35.00873 139.73483 9986 ft 331 kts 55°
2026-05-06 13:34 35.02173 139.75726 9995 ft 319 kts 55°
2026-05-06 13:34 35.03422 139.77883 9980 ft 311 kts 55°
2026-05-06 13:34 35.04654 139.80012 9859 ft 303 kts 55°
2026-05-06 13:34 35.05882 139.82134 9583 ft 302 kts 55°
2026-05-06 13:35 35.07075 139.84197 9292 ft 301 kts 55°
2026-05-06 13:35 35.08296 139.86315 8992 ft 300 kts 55°
2026-05-06 13:35 35.09496 139.88391 8726 ft 298 kts 55°
2026-05-06 13:35 35.10688 139.90455 8487 ft 297 kts 55°
2026-05-06 13:36 35.11879 139.92515 8234 ft 296 kts 55°
2026-05-06 13:36 35.13057 139.94556 8072 ft 291 kts 55°
2026-05-06 13:36 35.14255 139.96518 8009 ft 287 kts 45°
2026-05-06 13:36 35.15916 139.97820 7918 ft 294 kts 15°
2026-05-06 13:37 35.17912 139.98112 7604 ft 283 kts 355°
2026-05-06 13:37 35.19878 139.98137 7314 ft 282 kts 357°
2026-05-06 13:37 35.21837 139.98200 7004 ft 281 kts 357°
2026-05-06 13:37 35.23781 139.98269 6679 ft 279 kts 357°
2026-05-06 13:38 35.25675 139.98102 6253 ft 269 kts 338°
2026-05-06 13:38 35.27338 139.97145 5888 ft 262 kts 324°
2026-05-06 13:38 35.28906 139.95997 5523 ft 264 kts 326°
2026-05-06 13:38 35.30508 139.94891 5171 ft 265 kts 327°
2026-05-06 13:39 35.32116 139.93775 4824 ft 266 kts 326°
2026-05-06 13:39 35.33710 139.92655 4447 ft 259 kts 326°
2026-05-06 13:39 35.35239 139.91580 4094 ft 248 kts 326°
2026-05-06 13:39 35.36702 139.90547 3779 ft 237 kts 325°
2026-05-06 13:40 35.38110 139.89553 3519 ft 232 kts 325°
2026-05-06 13:40 35.39499 139.88573 3194 ft 221 kts 325°
2026-05-06 13:40 35.40793 139.87661 2891 ft 208 kts 325°
2026-05-06 13:40 35.42023 139.86792 2616 ft 201 kts 325°
2026-05-06 13:41 35.43213 139.85951 2352 ft 194 kts 325°
2026-05-06 13:41 35.44367 139.85136 2110 ft 190 kts 325°
2026-05-06 13:41 35.45521 139.84318 1862 ft 193 kts 325°
2026-05-06 13:41 35.46692 139.83490 1609 ft 195 kts 326°
2026-05-06 13:42 35.47848 139.82675 1348 ft 191 kts 326°
2026-05-06 13:42 35.48961 139.81889 1117 ft 179 kts 326°
2026-05-06 13:42 35.50003 139.81149 873 ft 161 kts 328°
2026-05-06 13:42 35.50932 139.80495 660 ft 150 kts 328°
2026-05-06 13:43 35.51827 139.79859 484 ft 152 kts 328°
2026-05-06 13:43 35.52743 139.79218 293 ft 148 kts 329°
2026-05-06 13:43 35.53652 139.78573 89 ft 152 kts 329°
2026-05-06 13:43 35.54530 139.77947 29 ft 132 kts 330°
2026-05-06 13:44 35.55151 139.77506 27 ft 56 kts 329°
2026-05-06 13:44 35.55376 139.77369 26 ft 31 kts 353°
2026-05-06 13:44 35.55505 139.77354 27 ft 9 kts 356°
2026-05-06 13:44 35.55565 139.77375 27 ft 10 kts 43°
2026-05-06 13:45 35.55565 139.77458 25 ft 11 kts 120°
2026-05-06 13:45 35.55393 139.77593 27 ft 21 kts 150°
2026-05-06 13:45 35.55303 139.77657 26 ft 20 kts 151°
2026-05-06 13:46 35.55145 139.77768 31 ft 20 kts 149°
2026-05-06 13:46 35.55065 139.77825 32 ft 20 kts 149°
2026-05-06 13:46 35.54948 139.77909 31 ft 20 kts 150°
2026-05-06 13:46 35.54830 139.77993 27 ft 20 kts 150°
2026-05-06 13:47 35.54708 139.78079 26 ft 20 kts 150°
2026-05-06 13:47 35.54591 139.78160 28 ft 20 kts 150°
2026-05-06 13:47 35.54473 139.78244 29 ft 20 kts 150°
2026-05-06 13:47 35.54364 139.78322 30 ft 16 kts 149°
2026-05-06 13:48 35.54288 139.78376 31 ft 9 kts 150°
2026-05-06 13:48 35.54247 139.78433 27 ft 9 kts 99°
2026-05-06 13:48 35.54279 139.78497 29 ft 9 kts 25°
2026-05-06 13:48 35.54338 139.78472 29 ft 9 kts 337°
2026-05-06 13:49 35.54389 139.78479 29 ft 7 kts 25°
2026-05-06 13:49 35.54432 139.78506 29 ft 7 kts 27°
2026-05-06 13:49 35.54450 139.78518 30 ft 1 kts 27°
2026-05-06 13:49 35.54451 139.78518 30 ft 0 kts 27°